This is the latest recevied weather packets stored in our database for station/object IU2EBF-4. If no packets are shown the sender has not sent any weather packets the latest 1 day(s).
| Time | Temp. | Humidity | Pressure | Rain* | Wind** | Luminosity | Snow |
|---|---|---|---|---|---|---|---|
| 1778079952 | 9.44° C | 60% | 1035 hPa | - | - | - | - |
| 1778078502 | 9.44° C | 62% | 1035 hPa | - | - | - | - |
| 1778075603 | 7.78° C | 63% | 1035 hPa | - | - | - | - |
| 1778074878 | 7.22° C | 62% | 1035 hPa | - | - | - | - |
| 1778070529 | 6.67° C | 61% | 1035 hPa | - | - | - | - |
| 1778069804 | 6.11° C | 61% | 1035 hPa | - | - | - | - |
| 1778066180 | 5° C | 63% | 1035 hPa | - | - | - | - |
| 1778065455 | 4.44° C | 63% | 1035 hPa | - | - | - | - |
| 1778064730 | 4.44° C | 63% | 1035 hPa | - | - | - | - |
| 1778061831 | 5.56° C | 61% | 1035 hPa | - | - | - | - |
| 1778061106 | 5.56° C | 60% | 1035 hPa | - | - | - | - |
| 1778060381 | 5.56° C | 60% | 1035 hPa | - | - | - | - |
| 1778059656 | 5.56° C | 59% | 1035 hPa | - | - | - | - |
| 1778058931 | 5.56° C | 60% | 1035 hPa | - | - | - | - |
| 1778056757 | 5° C | 56% | 1035 hPa | - | - | - | - |
| 1778056032 | 5° C | 57% | 1035 hPa | - | - | - | - |
| 1778055307 | 5° C | 56% | 1035 hPa | - | - | - | - |
| 1778053132 | 5° C | 55% | 1035 hPa | - | - | - | - |
| 1778052408 | 4.44° C | 55% | 1035 hPa | - | - | - | - |
| 1778051683 | 4.44° C | 56% | 1035 hPa | - | - | - | - |
| 1778050958 | 4.44° C | 56% | 1035 hPa | - | - | - | - |
| 1778050233 | 3.89° C | 57% | 1035 hPa | - | - | - | - |
| 1778049508 | 3.89° C | 56% | 1035 hPa | - | - | - | - |
| 1778048783 | 3.89° C | 58% | 1035 hPa | - | - | - | - |
| 1778048058 | 3.89° C | 56% | 1035 hPa | - | - | - | - |
* Rain since midnight (hover to see other rain measurements)
** Current wind speed in m/s (hover to see current wind gust speed)